, AZ

(GMT )
Fort Huachuca

Weather History for KALK - January, 2013

Change the Weather History Date:

Tuesday, January 8, 2013

  Actual Average Record
Temperature  
Mean Temperature 44 °F -  
Max Temperature 57 °F - - ()
Min Temperature 30 °F - - ()
Degree Days  
Heating Degree Days 22    
Moisture  
Dew Point 21 °F    
Average Humidity 45    
Maximum Humidity 76    
Minimum Humidity 20    
Precipitation  
Precipitation 0.00 in - - ()
Sea Level Pressure  
Sea Level Pressure 29.91 in    
Wind  
Wind Speed 7 mph (WSW)    
Max Wind Speed 13 mph    
Max Gust Speed -    
Averages and records for this station are not official NWS values.
T = Trace of Precipitation, MM = Missing Value Source: NWS Daily Summary

Daily Weather History Graph

Daily Weather History Graph

Search for Another Location

Airport or City:

Trip Planner

Search our weather history database for the weather conditions in past years. The results will help you decide how hot, cold, wet, or windy it might be!

Date:

Astronomy

Jan. 08, 2013 Rise Set
Actual Time 7:22 AM MST 5:35 PM MST
Civil Twilight 6:55 AM MST 6:01 PM MST
Nautical Twilight 6:25 AM MST 6:31 PM MST
Astronomical Twilight 5:56 AM MST 7:01 PM MST
Moon 4:00 AM MST (1/8) 2:40 PM MST (1/8)
Length of Visible Light 11h 06m
Length of Day
10h 12m
Waning Crescent, 13% of the Moon is Illuminated
Jan 8
Waning Crescent
Jan 11
New
Jan 18
First Quarter
Jan 26
Full
Feb 3
Last Quarter

Hourly Weather History & Observations

Time (MST) Temp. Windchill Dew Point Humidity Pressure Visibility Wind Dir Wind Speed Gust Speed Precip Events Conditions
12:56 AM 32.0 °F 25.6 °F 23.0 °F 69% 29.81 in - WSW 6.9 mph - N/A   Clear
1:56 AM 33.1 °F 28.7 °F 24.1 °F 70% 29.81 in - West 4.6 mph - N/A   Clear
2:56 AM 36.0 °F 31.1 °F 25.0 °F 64% 29.78 in - SSE 5.8 mph - N/A   Overcast
3:56 AM 39.0 °F 35.7 °F 25.0 °F 57% 29.78 in - SE 4.6 mph - N/A   Overcast
4:56 AM 33.1 °F 24.9 °F 25.0 °F 72% 29.81 in - West 10.4 mph - N/A   Overcast
5:56 AM 36.0 °F 30.3 °F 25.0 °F 64% 29.84 in - SSW 6.9 mph - N/A   Scattered Clouds
6:56 AM 37.0 °F 33.3 °F 25.0 °F 62% 29.85 in - SE 4.6 mph - N/A   Clear
7:56 AM 30.9 °F 22.8 °F 24.1 °F 76% 29.91 in - West 9.2 mph - N/A   Clear
8:56 AM 39.9 °F 36.7 °F 26.1 °F 58% 29.93 in - SW 4.6 mph - N/A   Clear
9:56 AM 45.0 °F 43.5 °F 25.0 °F 46% 29.94 in - West 3.5 mph - N/A   Clear
10:56 AM 50.0 °F - 24.1 °F 36% 29.93 in - Variable 3.5 mph - N/A   Clear
11:56 AM 54.0 °F - 23.0 °F 30% 29.91 in - Variable 3.5 mph - N/A   Clear
12:56 PM 55.9 °F - 19.0 °F 24% 29.90 in - NW 5.8 mph - N/A   Clear
1:56 PM 57.9 °F - 17.1 °F 20% 29.87 in - Variable 4.6 mph - N/A   Clear
2:56 PM 57.9 °F - 17.1 °F 20% 29.88 in - WNW 11.5 mph - N/A   Clear
3:56 PM 55.9 °F - 15.1 °F 20% 29.88 in - NW 12.7 mph - N/A   Clear
4:56 PM 53.1 °F - 17.1 °F 24% 29.93 in - NW 8.1 mph - N/A   Clear
5:56 PM 48.0 °F - 16.0 °F 28% 29.95 in - SW 3.5 mph - N/A   Clear
6:56 PM 42.1 °F 37.1 °F 17.1 °F 37% 29.98 in - WSW 8.1 mph - N/A   Clear
7:56 PM 39.0 °F 31.8 °F 18.0 °F 43% 30.01 in - WSW 11.5 mph - N/A   Clear
8:56 PM 39.9 °F 33.9 °F 18.0 °F 41% 30.00 in - WSW 9.2 mph - N/A   Clear
9:56 PM 37.9 °F 30.9 °F 18.0 °F 45% 30.02 in - WSW 10.4 mph - N/A   Clear
10:56 PM 39.0 °F 32.8 °F 18.0 °F 43% 30.02 in - SW 9.2 mph - N/A   Clear
11:56 PM 39.9 °F 35.8 °F 18.0 °F 41% 30.00 in - SW 5.8 mph - N/A   Clear